| time (UTC) | temp C | wind direction | speed KPH | gust KPH | rain 1hr cm | rain 24hr cm | rain mn cm | humidity % | barometer mb |
| 20260510032410 | 12 | 271 | 0.0 | 0.0 | 0.79 | 2.36 | 2.36 | 99 | 1005.8 |
| 20260510031905 | 12 | 272 | 0.0 | 0.0 | 0.00 | 2.24 | 2.24 | 99 | 1005.2 |
| 20260510031400 | 12 | 118 | 0.0 | 0.0 | 0.00 | 2.24 | 2.24 | 99 | 1004.4 |
| 20260510030855 | 12 | 295 | 0.0 | 0.0 | 0.00 | 2.24 | 2.24 | 99 | 1004.6 |
| 20260510030351 | 12 | 154 | 1.6 | 3.2 | 0.13 | 2.24 | 2.24 | 99 | 1004.6 |
| 20260510025849 | 12 | 127 | 3.2 | 3.2 | 0.61 | 2.24 | 2.24 | 99 | 1004.9 |
| 20260510025347 | 12 | 282 | 0.0 | 1.6 | 0.48 | 2.21 | 2.21 | 99 | 1005.1 |
| 20260510024843 | 12 | 271 | 0.0 | 0.0 | 0.00 | 2.13 | 2.13 | 99 | 1005.0 |
| 20260510024340 | 12 | 153 | 3.2 | 3.2 | 0.00 | 2.13 | 2.13 | 99 | 1004.3 |
| 20260510023836 | 12 | 52 | 1.6 | 1.6 | 0.00 | 2.13 | 2.13 | 99 | 1004.7 |
| 20260510023333 | 12 | 133 | 1.6 | 3.2 | 0.00 | 2.13 | 2.13 | 99 | 1004.7 |
| 20260510022830 | 12 | 347 | 0.0 | 0.0 | 0.00 | 2.13 | 2.13 | 99 | 1004.8 |
| 20260510022329 | 12 | 252 | 0.0 | 0.0 | 0.00 | 2.13 | 2.13 | 99 | 1004.6 |
| 20260510021828 | 12 | 90 | 0.0 | 0.0 | 0.00 | 2.13 | 2.13 | 99 | 1004.4 |
| 20260510021327 | 12 | 3 | 0.0 | 0.0 | 0.00 | 2.13 | 2.13 | 99 | 1004.3 |
| 20260510020822 | 12 | 286 | 0.0 | 0.0 | 0.00 | 2.13 | 2.13 | 99 | 1004.7 |
| 20260510020317 | 12 | 273 | 0.0 | 0.0 | 0.00 | 2.13 | 2.13 | 99 | 1004.8 |
| 20260510015813 | 12 | 290 | 0.0 | 0.0 | 0.00 | 2.13 | 2.13 | 99 | 1004.8 |
| 20260510015310 | 12 | 308 | 0.0 | 0.0 | 0.00 | 2.13 | 2.13 | 99 | 1004.7 |
| 20260510014805 | 12 | 308 | 0.0 | 0.0 | 0.00 | 2.13 | 2.13 | 99 | 1004.4 |
| 20260510014302 | 12 | 309 | 0.0 | 0.0 | 0.00 | 2.13 | 2.13 | 99 | 1004.3 |
| 20260510013758 | 12 | 295 | 0.0 | 0.0 | 0.00 | 2.13 | 2.13 | 99 | 1004.2 |
| 20260510013254 | 12 | 295 | 0.0 | 0.0 | 0.13 | 2.13 | 2.13 | 99 | 1004.4 |
| 20260510012749 | 12 | 318 | 0.0 | 0.0 | 0.13 | 2.13 | 2.13 | 99 | 1004.3 |
| 20260510012244 | 12 | 289 | 0.0 | 0.0 | 0.18 | 2.11 | 2.11 | 99 | 1004.2 |
| 20260510011743 | 12 | 114 | 3.2 | 3.2 | 0.48 | 2.11 | 2.11 | 99 | 1004.4 |
| 20260510011239 | 12 | 295 | 0.0 | 0.0 | 0.30 | 2.08 | 2.08 | 99 | 1004.4 |
| 20260510010737 | 12 | 194 | 1.6 | 1.6 | 0.18 | 2.03 | 2.03 | 99 | 1004.7 |
| 20260510010233 | 12 | 280 | 0.0 | 0.0 | 0.30 | 2.03 | 2.03 | 99 | 1004.3 |
| 20260510005730 | 12 | 298 | 0.0 | 0.0 | 0.43 | 2.01 | 2.01 | 99 | 1004.7 |
| 20260510005226 | 12 | 309 | 0.0 | 0.0 | 1.07 | 1.98 | 1.98 | 99 | 1004.7 |
| 20260510004724 | 12 | 260 | 3.2 | 3.2 | 1.37 | 1.93 | 1.93 | 99 | 1004.8 |
| 20260510004222 | 12 | 290 | 1.6 | 3.2 | 0.97 | 1.83 | 1.83 | 98 | 1004.9 |
| 20260510003719 | 12 | 287 | 0.0 | 1.6 | 0.79 | 1.70 | 1.70 | 98 | 1004.7 |
| 20260510003215 | 12 | 268 | 3.2 | 4.8 | 2.87 | 1.68 | 1.68 | 97 | 1004.4 |
| 20260510002714 | 12 | 291 | 3.2 | 3.2 | 3.96 | 1.60 | 1.60 | 95 | 1004.3 |
| 20260510002212 | 13 | 298 | 8.0 | 11.3 | 1.55 | 1.17 | 1.17 | 91 | 1004.3 |
| 20260510001709 | 14 | 324 | 3.2 | 4.8 | 0.00 | 0.91 | 0.91 | 83 | 1003.9 |
| 20260510001207 | 17 | 317 | 4.8 | 6.4 | 0.00 | 0.91 | 0.91 | 73 | 1004.1 |
| 20260510000702 | 17 | 307 | 4.8 | 4.8 | 0.00 | 0.91 | 0.91 | 66 | 1002.7 |
| 20260510000200 | 18 | 290 | 0.0 | 0.0 | 0.00 | 0.91 | 0.91 | 67 | 1002.3 |
| 20260509235656 | 18 | 260 | 0.0 | 0.0 | 0.00 | 0.91 | 0.91 | 66 | 1002.5 |
| 20260509235152 | 18 | 184 | 1.6 | 3.2 | 0.00 | 0.91 | 0.91 | 65 | 1002.2 |
| 20260509234649 | 18 | 164 | 0.0 | 0.0 | 0.00 | 0.91 | 0.91 | 65 | 1002.2 |
| 20260509234146 | 18 | 168 | 0.0 | 1.6 | 0.00 | 0.91 | 0.91 | 65 | 1001.9 |
| 20260509233644 | 18 | 65 | 3.2 | 6.4 | 0.00 | 0.91 | 0.91 | 64 | 1001.9 |
| 20260509233141 | 18 | 257 | 0.0 | 0.0 | 0.00 | 0.91 | 0.91 | 64 | 1001.6 |
| 20260509232637 | 18 | 314 | 1.6 | 1.6 | 0.00 | 0.91 | 0.91 | 65 | 1001.9 |
| 20260509232134 | 18 | 262 | 1.6 | 3.2 | 0.00 | 0.91 | 0.91 | 63 | 1001.8 |
| 20260509231631 | 18 | 227 | 4.8 | 6.4 | 0.00 | 0.91 | 0.91 | 63 | 1001.5 |
| 20260509231128 | 18 | 285 | 0.0 | 0.0 | 0.00 | 0.91 | 0.91 | 64 | 1001.6 |
| 20260509230625 | 18 | 275 | 1.6 | 3.2 | 0.00 | 0.91 | 0.91 | 63 | 1001.3 |
| 20260509230122 | 19 | 234 | 1.6 | 1.6 | 0.00 | 0.91 | 0.91 | 61 | 1001.3 |
| 20260509225618 | 19 | 145 | 1.6 | 3.2 | 0.00 | 0.91 | 0.91 | 61 | 1001.4 |
| 20260509225113 | 19 | 71 | 0.0 | 1.6 | 0.00 | 0.91 | 0.91 | 61 | 1001.7 |
| 20260509224609 | 19 | 98 | 1.6 | 1.6 | 0.00 | 0.91 | 0.91 | 63 | 1001.5 |
| 20260509224106 | 19 | 198 | 4.8 | 4.8 | 0.00 | 0.91 | 0.91 | 60 | 1001.5 |
| 20260509223603 | 20 | 156 | 3.2 | 6.4 | 0.00 | 0.91 | 0.91 | 62 | 1001.8 |
| 20260509223101 | 20 | 152 | 6.4 | 6.4 | 0.00 | 0.91 | 0.91 | 59 | 1001.6 |
| 20260509222557 | 20 | 195 | 4.8 | 4.8 | 0.00 | 0.91 | 0.91 | 59 | 1001.6 |
| 20260509222053 | 20 | 126 | 9.7 | 14.5 | 0.00 | 0.91 | 0.91 | 58 | 1001.4 |
| 20260509221548 | 20 | 280 | 1.6 | 1.6 | 0.00 | 0.91 | 0.91 | 62 | 1001.5 |
| 20260509221045 | 20 | 310 | 0.0 | 1.6 | 0.00 | 0.91 | 0.91 | 61 | 1001.7 |
| 20260509220541 | 20 | 162 | 17.7 | 22.5 | 0.00 | 0.91 | 0.91 | 58 | 1001.4 |
| 20260509220037 | 20 | 124 | 3.2 | 4.8 | 0.00 | 0.91 | 0.91 | 59 | 1001.4 |
| 20260509215532 | 20 | 149 | 3.2 | 4.8 | 0.00 | 0.91 | 0.91 | 61 | 1001.6 |
| 20260509215030 | 20 | 134 | 8.0 | 12.9 | 0.00 | 0.91 | 0.91 | 61 | 1001.8 |
| 20260509214527 | 20 | 175 | 4.8 | 6.4 | 0.00 | 0.91 | 0.91 | 60 | 1001.5 |
| 20260509214024 | 20 | 249 | 0.0 | 1.6 | 0.00 | 0.91 | 0.91 | 61 | 1001.7 |
| 20260509213520 | 20 | 279 | 0.0 | 1.6 | 0.00 | 0.91 | 0.91 | 63 | 1001.7 |
| 20260509213017 | 20 | 263 | 1.6 | 1.6 | 0.00 | 0.91 | 0.91 | 62 | 1001.7 |
| 20260509212514 | 20 | 137 | 3.2 | 4.8 | 0.00 | 0.91 | 0.91 | 62 | 1001.7 |
| 20260509212011 | 20 | 106 | 4.8 | 6.4 | 0.00 | 0.91 | 0.91 | 62 | 1001.8 |
| 20260509211506 | 20 | 140 | 9.7 | 11.3 | 0.00 | 0.91 | 0.91 | 59 | 1001.6 |
| 20260509211003 | 20 | 127 | 6.4 | 12.9 | 0.00 | 0.91 | 0.91 | 61 | 1001.5 |
| 20260509210500 | 20 | 260 | 0.0 | 1.6 | 0.00 | 0.91 | 0.91 | 61 | 1001.5 |
| 20260509205956 | 20 | 268 | 1.6 | 1.6 | 0.00 | 0.91 | 0.91 | 62 | 1001.8 |
| 20260509205450 | 20 | 27 | 1.6 | 3.2 | 0.00 | 0.91 | 0.91 | 61 | 1001.7 |
| 20260509204946 | 20 | 245 | 1.6 | 1.6 | 0.00 | 0.91 | 0.91 | 61 | 1002.0 |
| 20260509204443 | 20 | 303 | 1.6 | 3.2 | 0.00 | 0.91 | 0.91 | 63 | 1001.9 |
| 20260509203940 | 20 | 175 | 3.2 | 4.8 | 0.00 | 0.91 | 0.91 | 60 | 1002.0 |
| 20260509203435 | 20 | 114 | 6.4 | 9.7 | 0.00 | 0.91 | 0.91 | 60 | 1002.2 |
| 20260509202933 | 20 | 65 | 3.2 | 3.2 | 0.00 | 0.91 | 0.91 | 61 | 1002.2 |
| 20260509202429 | 20 | 142 | 9.7 | 12.9 | 0.00 | 0.91 | 0.91 | 60 | 1002.5 |
| 20260509201924 | 20 | 233 | 11.3 | 14.5 | 0.00 | 0.91 | 0.91 | 60 | 1002.5 |
| 20260509201420 | 20 | 176 | 6.4 | 6.4 | 0.00 | 0.91 | 0.91 | 61 | 1002.5 |
| 20260509200917 | 20 | 288 | 3.2 | 3.2 | 0.00 | 0.91 | 0.91 | 62 | 1002.8 |
| 20260509200417 | 20 | 52 | 3.2 | 4.8 | 0.00 | 0.91 | 0.91 | 60 | 1002.7 |
| 20260509195913 | 20 | 317 | 1.6 | 1.6 | 0.00 | 0.91 | 0.91 | 65 | 1002.7 |
| 20260509195408 | 20 | 125 | 4.8 | 9.7 | 0.00 | 0.91 | 0.91 | 65 | 1002.7 |
| 20260509194903 | 19 | 134 | 3.2 | 4.8 | 0.00 | 0.91 | 0.91 | 65 | 1002.9 |
| 20260509194359 | 19 | 220 | 4.8 | 4.8 | 0.00 | 0.91 | 0.91 | 65 | 1003.1 |
| 20260509193856 | 19 | 200 | 1.6 | 3.2 | 0.00 | 0.91 | 0.91 | 67 | 1003.0 |
| 20260509193356 | 19 | 242 | 1.6 | 1.6 | 0.00 | 0.91 | 0.91 | 67 | 1002.8 |
| 20260509192852 | 18 | 143 | 8.0 | 14.5 | 0.00 | 0.91 | 0.91 | 68 | 1003.3 |
| 20260509192348 | 19 | 239 | 3.2 | 4.8 | 0.00 | 0.91 | 0.91 | 70 | 1003.3 |
| 20260509191844 | 18 | 218 | 1.6 | 1.6 | 0.00 | 0.91 | 0.91 | 70 | 1003.3 |
| 20260509191340 | 18 | 226 | 3.2 | 3.2 | 0.00 | 0.91 | 0.91 | 71 | 1003.3 |
| 20260509190836 | 18 | 154 | 11.3 | 14.5 | 0.00 | 0.91 | 0.91 | 67 | 1003.4 |
| 20260509190333 | 19 | 240 | 1.6 | 1.6 | 0.00 | 0.91 | 0.91 | 70 | 1003.3 |
| 20260509185830 | 18 | 294 | 1.6 | 3.2 | 0.00 | 0.91 | 0.91 | 72 | 1003.1 |
| 20260509185327 | 18 | 137 | 9.7 | 11.3 | 0.00 | 0.91 | 0.91 | 68 | 1003.3 |
| 20260509184824 | 19 | 219 | 3.2 | 4.8 | 0.00 | 0.91 | 0.91 | 65 | 1003.4 |
| 20260509184321 | 18 | 177 | 3.2 | 4.8 | 0.00 | 0.91 | 0.91 | 68 | 1003.6 |
| 20260509183818 | 17 | 268 | 4.8 | 6.4 | 0.00 | 0.91 | 0.91 | 73 | 1003.6 |
| 20260509183313 | 17 | 60 | 1.6 | 1.6 | 0.00 | 0.91 | 0.91 | 71 | 1003.7 |
| 20260509182809 | 18 | 147 | 8.0 | 11.3 | 0.00 | 0.91 | 0.91 | 68 | 1003.6 |
| 20260509182307 | 18 | 230 | 8.0 | 11.3 | 0.00 | 0.91 | 0.91 | 68 | 1003.8 |
| 20260509181803 | 18 | 151 | 6.4 | 9.7 | 0.00 | 0.91 | 0.91 | 69 | 1003.4 |
| 20260509181301 | 18 | 265 | 1.6 | 1.6 | 0.00 | 0.91 | 0.91 | 69 | 1003.6 |
| 20260509180758 | 17 | 239 | 3.2 | 3.2 | 0.00 | 0.91 | 0.91 | 74 | 1003.5 |
| 20260509180254 | 18 | 260 | 1.6 | 3.2 | 0.00 | 0.91 | 0.91 | 70 | 1003.5 |
| 20260509175750 | 18 | 249 | 0.0 | 1.6 | 0.00 | 0.91 | 0.91 | 71 | 1003.6 |
| 20260509175247 | 17 | 127 | 3.2 | 4.8 | 0.00 | 0.91 | 0.91 | 72 | 1003.6 |
| 20260509174743 | 17 | 136 | 3.2 | 4.8 | 0.00 | 0.91 | 0.91 | 74 | 1003.7 |
| 20260509174238 | 18 | 197 | 3.2 | 3.2 | 0.00 | 0.91 | 0.91 | 72 | 1003.9 |
| 20260509173735 | 18 | 235 | 3.2 | 3.2 | 0.00 | 0.91 | 0.91 | 73 | 1003.7 |
| 20260509173230 | 17 | 278 | 1.6 | 3.2 | 0.00 | 0.91 | 0.91 | 74 | 1003.7 |
| 20260509172727 | 17 | 317 | 1.6 | 1.6 | 0.00 | 0.91 | 0.91 | 76 | 1003.8 |
| 20260509172223 | 17 | 194 | 1.6 | 3.2 | 0.00 | 0.91 | 0.91 | 76 | 1003.7 |
| 20260509171718 | 17 | 227 | 3.2 | 3.2 | 0.00 | 0.91 | 0.91 | 76 | 1003.9 |
| 20260509171215 | 17 | 222 | 0.0 | 0.0 | 0.00 | 0.91 | 0.91 | 77 | 1003.9 |
| 20260509170712 | 17 | 301 | 0.0 | 0.0 | 0.00 | 0.91 | 0.91 | 80 | 1003.7 |
| 20260509170208 | 17 | 249 | 1.6 | 3.2 | 0.00 | 0.91 | 0.91 | 80 | 1004.0 |
| 20260509165707 | 17 | 265 | 1.6 | 1.6 | 0.00 | 0.91 | 0.91 | 79 | 1004.0 |
| 20260509165202 | 16 | 198 | 3.2 | 3.2 | 0.00 | 0.91 | 0.91 | 80 | 1003.9 |
| 20260509164658 | 16 | 332 | 1.6 | 1.6 | 0.00 | 0.91 | 0.91 | 82 | 1004.0 |
| 20260509164154 | 16 | 308 | 1.6 | 1.6 | 0.00 | 0.91 | 0.91 | 85 | 1004.0 |
| 20260509163652 | 15 | 9 | 1.6 | 1.6 | 0.00 | 0.91 | 0.91 | 87 | 1004.0 |
| 20260509163148 | 15 | 332 | 1.6 | 3.2 | 0.00 | 0.91 | 0.91 | 87 | 1004.1 |
| 20260509162645 | 14 | 271 | 1.6 | 1.6 | 0.00 | 0.91 | 0.91 | 90 | 1004.3 |
| 20260509162141 | 14 | 277 | 3.2 | 3.2 | 0.00 | 0.91 | 0.91 | 88 | 1004.1 |
| 20260509161637 | 15 | 300 | 0.0 | 0.0 | 0.00 | 0.91 | 0.91 | 88 | 1004.1 |
| 20260509161132 | 15 | 284 | 0.0 | 1.6 | 0.00 | 0.91 | 0.91 | 88 | 1004.0 |
| 20260509160628 | 14 | 302 | 0.0 | 0.0 | 0.00 | 0.91 | 0.91 | 89 | 1004.0 |
| 20260509160124 | 13 | 315 | 0.0 | 0.0 | 0.00 | 0.91 | 0.91 | 91 | 1003.9 |
| 20260509155621 | 13 | 201 | 3.2 | 3.2 | 0.00 | 0.91 | 0.91 | 91 | 1004.3 |
| 20260509155116 | 13 | 313 | 0.0 | 0.0 | 0.00 | 0.91 | 0.91 | 92 | 1004.0 |
| 20260509154612 | 13 | 285 | 0.0 | 0.0 | 0.00 | 0.91 | 0.91 | 92 | 1004.2 |
| 20260509154110 | 13 | 290 | 0.0 | 0.0 | 0.00 | 0.91 | 0.91 | 92 | 1004.1 |
| 20260509153607 | 13 | 270 | 1.6 | 1.6 | 0.00 | 0.91 | 0.91 | 92 | 1004.0 |
| 20260509153104 | 13 | 288 | 1.6 | 1.6 | 0.00 | 0.91 | 0.91 | 91 | 1003.8 |
| 20260509152600 | 13 | 319 | 1.6 | 1.6 | 0.00 | 0.91 | 0.91 | 92 | 1004.0 |
| 20260509152057 | 13 | 283 | 0.0 | 0.0 | 0.00 | 0.91 | 0.91 | 94 | 1003.6 |
| 20260509151553 | 13 | 295 | 1.6 | 1.6 | 0.00 | 0.91 | 0.91 | 95 | 1004.0 |
| 20260509151051 | 12 | 323 | 3.2 | 3.2 | 0.00 | 0.91 | 0.91 | 95 | 1003.8 |
| 20260509150548 | 12 | 288 | 1.6 | 3.2 | 0.00 | 0.91 | 0.91 | 95 | 1004.1 |
| 20260509150047 | 12 | 202 | 1.6 | 1.6 | 0.00 | 0.91 | 0.91 | 96 | 1004.3 |
| 20260509145542 | 12 | 292 | 0.0 | 0.0 | 0.00 | 0.91 | 0.91 | 97 | 1004.0 |
| 20260509145037 | 12 | 254 | 1.6 | 1.6 | 0.00 | 0.91 | 0.91 | 97 | 1003.9 |
| 20260509144534 | 12 | 290 | 0.0 | 0.0 | 0.00 | 0.91 | 0.91 | 97 | 1003.9 |
| 20260509144032 | 12 | 133 | 8.0 | 11.3 | 0.00 | 0.91 | 0.91 | 98 | 1003.9 |
| 20260509143528 | 12 | 65 | 4.8 | 6.4 | 0.00 | 0.91 | 0.91 | 99 | 1003.7 |
| 20260509143027 | 11 | 309 | 0.0 | 0.0 | 0.00 | 0.91 | 0.91 | 99 | 1004.0 |
| 20260509142521 | 11 | 307 | 0.0 | 0.0 | 0.00 | 0.91 | 0.91 | 99 | 1004.1 |
| 20260509142017 | 11 | 289 | 0.0 | 0.0 | 0.00 | 0.91 | 0.91 | 99 | 1004.2 |
| 20260509141514 | 11 | 38 | 1.6 | 3.2 | 0.00 | 0.91 | 0.91 | 99 | 1004.0 |
| 20260509141011 | 11 | 280 | 0.0 | 0.0 | 0.00 | 0.91 | 0.91 | 99 | 1003.8 |
| 20260509140508 | 11 | 315 | 0.0 | 0.0 | 0.00 | 0.91 | 0.91 | 99 | 1003.8 |
| 20260509140006 | 11 | 286 | 0.0 | 1.6 | 0.00 | 0.91 | 0.91 | 99 | 1003.9 |
| 20260509135502 | 11 | 209 | 0.0 | 0.0 | 0.00 | 0.91 | 0.91 | 99 | 1004.0 |
| 20260509135000 | 11 | 202 | 0.0 | 0.0 | 0.00 | 0.91 | 0.91 | 99 | 1004.0 |
| 20260509134457 | 11 | 300 | 0.0 | 0.0 | 0.00 | 0.91 | 0.91 | 99 | 1004.0 |
| 20260509133955 | 11 | 334 | 0.0 | 0.0 | 0.00 | 0.91 | 0.91 | 99 | 1003.9 |
| 20260509133451 | 11 | 342 | 0.0 | 0.0 | 0.00 | 0.91 | 0.91 | 99 | 1003.9 |
| 20260509132949 | 11 | 176 | 1.6 | 3.2 | 0.00 | 0.91 | 0.91 | 99 | 1004.2 |
| 20260509132447 | 11 | 355 | 0.0 | 0.0 | 0.00 | 0.91 | 0.91 | 99 | 1004.2 |
| 20260509131944 | 11 | 311 | 0.0 | 0.0 | 0.00 | 0.91 | 0.91 | 99 | 1004.4 |
| 20260509131441 | 11 | 298 | 0.0 | 1.6 | 0.00 | 0.91 | 0.91 | 99 | 1004.2 |
| 20260509130937 | 10 | 284 | 0.0 | 0.0 | 0.00 | 0.91 | 0.91 | 99 | 1004.2 |
| 20260509130433 | 10 | 127 | 0.0 | 0.0 | 0.00 | 0.91 | 0.91 | 99 | 1004.2 |
| 20260509125930 | 10 | 170 | 1.6 | 1.6 | 0.00 | 0.91 | 0.91 | 99 | 1004.4 |
| 20260509125427 | 10 | 329 | 0.0 | 0.0 | 0.00 | 0.91 | 0.91 | 99 | 1004.3 |
| 20260509124923 | 10 | 289 | 0.0 | 0.0 | 0.00 | 0.91 | 0.91 | 99 | 1004.3 |
| 20260509124420 | 10 | 359 | 0.0 | 1.6 | 0.00 | 0.91 | 0.91 | 99 | 1004.3 |
| 20260509123917 | 10 | 108 | 0.0 | 0.0 | 0.00 | 0.91 | 0.91 | 99 | 1004.1 |
| 20260509123415 | 10 | 156 | 0.0 | 1.6 | 0.00 | 0.91 | 0.91 | 99 | 1003.9 |
| 20260509122910 | 10 | 6 | 0.0 | 0.0 | 0.00 | 0.91 | 0.91 | 99 | 1004.2 |
| 20260509122408 | 10 | 7 | 0.0 | 0.0 | 0.00 | 0.91 | 0.91 | 99 | 1004.6 |
| 20260509121904 | 10 | 7 | 0.0 | 0.0 | 0.00 | 0.91 | 0.91 | 99 | 1004.2 |
| 20260509121401 | 10 | 14 | 0.0 | 0.0 | 0.00 | 0.91 | 0.91 | 99 | 1004.4 |
| 20260509120859 | 10 | 35 | 0.0 | 0.0 | 0.00 | 0.91 | 0.91 | 99 | 1004.3 |
| 20260509120357 | 10 | 8 | 0.0 | 0.0 | 0.00 | 0.91 | 0.91 | 99 | 1004.4 |
| 20260509115854 | 10 | 47 | 0.0 | 0.0 | 0.00 | 0.91 | 0.91 | 99 | 1004.3 |
| 20260509115352 | 10 | 41 | 0.0 | 0.0 | 0.00 | 0.91 | 0.91 | 99 | 1004.7 |
| 20260509114849 | 10 | 48 | 1.6 | 1.6 | 0.00 | 0.91 | 0.91 | 99 | 1004.6 |
| 20260509114348 | 10 | 157 | 0.0 | 0.0 | 0.00 | 0.91 | 0.91 | 99 | 1004.6 |
| 20260509113847 | 10 | 157 | 0.0 | 0.0 | 0.00 | 0.91 | 0.91 | 99 | 1004.3 |
| 20260509113344 | 10 | 297 | 0.0 | 1.6 | 0.00 | 0.91 | 0.91 | 99 | 1004.1 |
| 20260509112840 | 10 | 289 | 0.0 | 0.0 | 0.00 | 0.91 | 0.91 | 99 | 1004.2 |
| 20260509112337 | 10 | 151 | 3.2 | 3.2 | 0.00 | 0.91 | 0.91 | 99 | 1004.3 |
| 20260509111834 | 10 | 255 | 0.0 | 0.0 | 0.00 | 0.91 | 0.91 | 99 | 1004.0 |
| 20260509111331 | 10 | 255 | 0.0 | 0.0 | 0.00 | 0.91 | 0.91 | 99 | 1004.1 |
| 20260509110829 | 9 | 301 | 0.0 | 0.0 | 0.00 | 0.91 | 0.91 | 99 | 1004.1 |
| 20260509110325 | 9 | 283 | 0.0 | 0.0 | 0.00 | 0.91 | 0.91 | 99 | 1004.1 |
| 20260509105823 | 9 | 265 | 0.0 | 0.0 | 0.00 | 0.91 | 0.91 | 99 | 1004.2 |
| 20260509105321 | 9 | 331 | 0.0 | 0.0 | 0.00 | 0.91 | 0.91 | 99 | 1004.1 |
| 20260509104817 | 9 | 268 | 0.0 | 0.0 | 0.13 | 0.91 | 0.91 | 99 | 1004.1 |
| 20260509104314 | 9 | 285 | 0.0 | 0.0 | 0.13 | 0.91 | 0.91 | 99 | 1004.3 |
| 20260509103812 | 9 | 253 | 1.6 | 1.6 | 0.00 | 0.89 | 0.89 | 99 | 1004.1 |
| 20260509103309 | 9 | 303 | 0.0 | 0.0 | 0.00 | 0.89 | 0.89 | 99 | 1004.3 |
| 20260509102808 | 9 | 283 | 0.0 | 0.0 | 0.00 | 0.89 | 0.89 | 99 | 1004.3 |
| 20260509102306 | 9 | 27 | 0.0 | 0.0 | 0.00 | 0.89 | 0.89 | 99 | 1004.1 |
| 20260509101800 | 9 | 319 | 0.0 | 0.0 | 0.00 | 0.89 | 0.89 | 99 | 1004.2 |
| 20260509101257 | 9 | 277 | 0.0 | 1.6 | 0.18 | 0.89 | 0.89 | 99 | 1004.2 |
| 20260509100754 | 9 | 148 | 1.6 | 3.2 | 0.18 | 0.89 | 0.89 | 99 | 1004.4 |
| 20260509100252 | 9 | 43 | 1.6 | 1.6 | 0.00 | 0.86 | 0.86 | 99 | 1004.3 |
| 20260509095748 | 9 | 91 | 1.6 | 1.6 | 0.00 | 0.86 | 0.86 | 99 | 1004.2 |
| 20260509095245 | 9 | 158 | 0.0 | 0.0 | 0.00 | 0.86 | 0.86 | 99 | 1004.7 |
| 20260509094742 | 9 | 66 | 1.6 | 1.6 | 0.00 | 0.86 | 0.86 | 99 | 1004.3 |
| 20260509094239 | 9 | 330 | 0.0 | 0.0 | 0.00 | 0.86 | 0.86 | 99 | 1004.7 |
| 20260509093737 | 9 | 134 | 3.2 | 4.8 | 0.13 | 0.86 | 0.86 | 99 | 1004.7 |
| 20260509093234 | 9 | 281 | 1.6 | 1.6 | 0.13 | 0.86 | 0.86 | 99 | 1004.7 |
| 20260509092732 | 9 | 145 | 3.2 | 3.2 | 0.00 | 0.84 | 0.84 | 99 | 1004.3 |
| 20260509092230 | 9 | 340 | 0.0 | 0.0 | 0.00 | 0.84 | 0.84 | 99 | 1004.8 |
| 20260509091728 | 9 | 128 | 1.6 | 1.6 | 0.00 | 0.84 | 0.84 | 99 | 1004.9 |
| 20260509091224 | 9 | 29 | 1.6 | 3.2 | 0.18 | 0.84 | 0.84 | 99 | 1005.0 |
| 20260509090722 | 9 | 9 | 1.6 | 1.6 | 0.30 | 0.84 | 0.84 | 99 | 1004.9 |
| 20260509090218 | 9 | 355 | 0.0 | 0.0 | 0.13 | 0.81 | 0.81 | 99 | 1005.1 |
| 20260509085716 | 9 | 187 | 0.0 | 0.0 | 0.18 | 0.79 | 0.79 | 99 | 1005.1 |
| 20260509085213 | 9 | 215 | 0.0 | 1.6 | 0.36 | 0.79 | 0.79 | 99 | 1004.9 |
| 20260509084710 | 9 | 290 | 0.0 | 0.0 | 0.30 | 0.76 | 0.76 | 99 | 1005.0 |
| 20260509084206 | 9 | 344 | 0.0 | 0.0 | 0.30 | 0.74 | 0.74 | 99 | 1005.0 |
| 20260509083704 | 9 | 234 | 0.0 | 1.6 | 0.48 | 0.71 | 0.71 | 99 | 1005.0 |
| 20260509083201 | 9 | 247 | 0.0 | 0.0 | 0.43 | 0.69 | 0.69 | 99 | 1005.2 |
| 20260509082658 | 9 | 196 | 0.0 | 1.6 | 0.30 | 0.64 | 0.64 | 99 | 1005.3 |
| 20260509082154 | 9 | 155 | 3.2 | 4.8 | 0.48 | 0.61 | 0.61 | 99 | 1005.3 |
| 20260509081651 | 9 | 299 | 0.0 | 0.0 | 0.43 | 0.58 | 0.58 | 99 | 1005.2 |
| 20260509081148 | 9 | 106 | 1.6 | 3.2 | 0.48 | 0.53 | 0.53 | 99 | 1005.2 |
| 20260509080646 | 9 | 50 | 1.6 | 1.6 | 0.36 | 0.51 | 0.51 | 99 | 1005.4 |
| 20260509080144 | 9 | 222 | 0.0 | 0.0 | 0.13 | 0.46 | 0.46 | 99 | 1005.3 |
| 20260509075642 | 9 | 184 | 0.0 | 0.0 | 0.13 | 0.46 | 0.46 | 99 | 1005.4 |
| 20260509075140 | 9 | 171 | 1.6 | 1.6 | 0.00 | 0.43 | 0.43 | 99 | 1005.2 |
| 20260509074636 | 9 | 158 | 1.6 | 1.6 | 0.18 | 0.43 | 0.43 | 99 | 1005.4 |
| 20260509074133 | 9 | 294 | 0.0 | 0.0 | 0.30 | 0.43 | 0.43 | 99 | 1005.3 |
| 20260509073630 | 9 | 60 | 1.6 | 1.6 | 0.43 | 0.41 | 0.41 | 99 | 1005.7 |
| 20260509073126 | 8 | 285 | 0.0 | 0.0 | 0.61 | 0.38 | 0.38 | 99 | 1005.5 |
| 20260509072623 | 8 | 157 | 1.6 | 3.2 | 0.48 | 0.33 | 0.33 | 99 | 1005.3 |
| 20260509072120 | 8 | 124 | 3.2 | 3.2 | 0.30 | 0.28 | 0.28 | 99 | 1005.4 |
| 20260509071616 | 8 | 276 | 0.0 | 0.0 | 0.13 | 0.25 | 0.25 | 99 | 1005.5 |
| 20260509071114 | 9 | 289 | 0.0 | 1.6 | 0.18 | 0.23 | 0.23 | 99 | 1005.4 |
| 20260509070611 | 8 | 224 | 1.6 | 1.6 | 0.18 | 0.23 | 0.23 | 99 | 1005.4 |
| 20260509070107 | 9 | 112 | 1.6 | 3.2 | 0.00 | 0.20 | 0.20 | 99 | 1005.1 |
| 20260509065602 | 9 | 302 | 0.0 | 0.0 | 0.13 | 0.20 | 0.20 | 99 | 1005.4 |
| 20260509065059 | 9 | 302 | 0.0 | 0.0 | 0.30 | 0.20 | 0.20 | 99 | 1005.5 |
| 20260509064556 | 9 | 105 | 1.6 | 3.2 | 0.36 | 0.18 | 0.18 | 99 | 1005.4 |
| 20260509064054 | 9 | 261 | 0.0 | 1.6 | 0.18 | 0.15 | 0.15 | 99 | 1005.5 |
| 20260509063550 | 9 | 251 | 0.0 | 0.0 | 0.13 | 0.13 | 0.13 | 99 | 1005.5 |
| 20260509063047 | 9 | 251 | 0.0 | 0.0 | 0.13 | 0.13 | 0.13 | 99 | 1005.5 |
| 20260509062544 | 9 | 251 | 0.0 | 0.0 | 0.00 | 0.10 | 0.10 | 99 | 1005.5 |
| 20260509062042 | 9 | 251 | 0.0 | 0.0 | 0.00 | 0.10 | 0.10 | 99 | 1005.6 |
| 20260509061538 | 9 | 251 | 0.0 | 0.0 | 0.00 | 0.10 | 0.10 | 99 | 1005.6 |
| 20260509061036 | 9 | 253 | 0.0 | 0.0 | 0.00 | 0.10 | 0.10 | 99 | 1005.9 |
| 20260509060533 | 9 | 253 | 0.0 | 0.0 | 0.00 | 0.10 | 0.10 | 99 | 1005.8 |
| 20260509060029 | 9 | 276 | 0.0 | 1.6 | 0.00 | 0.10 | 0.10 | 99 | 1006.1 |
| 20260509055524 | 9 | 276 | 0.0 | 0.0 | 0.00 | 0.10 | 0.10 | 99 | 1006.2 |
| 20260509055020 | 9 | 305 | 0.0 | 0.0 | 0.00 | 0.10 | 0.10 | 99 | 1005.9 |
| 20260509054517 | 9 | 349 | 0.0 | 1.6 | 0.00 | 0.10 | 0.10 | 99 | 1005.8 |
| 20260509054015 | 9 | 253 | 0.0 | 0.0 | 0.00 | 0.10 | 0.10 | 99 | 1006.2 |
| 20260509053514 | 9 | 253 | 0.0 | 0.0 | 0.00 | 0.10 | 0.10 | 99 | 1006.1 |
| 20260509053010 | 9 | 256 | 0.0 | 0.0 | 0.18 | 0.10 | 0.10 | 99 | 1006.3 |
| 20260509052508 | 9 | 256 | 0.0 | 0.0 | 0.18 | 0.10 | 0.10 | 99 | 1006.2 |
| 20260509052006 | 9 | 256 | 0.0 | 0.0 | 0.00 | 0.08 | 0.08 | 99 | 1006.5 |
| 20260509051503 | 9 | 255 | 0.0 | 0.0 | 0.13 | 0.08 | 0.08 | 99 | 1006.6 |
| 20260509051000 | 9 | 267 | 0.0 | 0.0 | 0.13 | 0.08 | 0.08 | 99 | 1006.4 |
| 20260509050457 | 9 | 291 | 0.0 | 0.0 | 0.00 | 0.05 | 0.05 | 99 | 1006.6 |
| 20260509045953 | 9 | 291 | 0.0 | 0.0 | 0.00 | 0.05 | 0.05 | 99 | 1006.9 |
| 20260509045451 | 9 | 291 | 0.0 | 0.0 | 0.00 | 0.05 | 0.05 | 99 | 1006.5 |
| 20260509044947 | 9 | 291 | 0.0 | 0.0 | 0.18 | 0.05 | 0.05 | 99 | 1006.4 |
| 20260509044445 | 9 | 292 | 0.0 | 0.0 | 0.18 | 0.05 | 0.05 | 99 | 1006.5 |
| 20260509043942 | 9 | 293 | 0.0 | 0.0 | 0.00 | 0.03 | 0.03 | 99 | 1006.9 |
| 20260509043438 | 9 | 293 | 0.0 | 0.0 | 0.00 | 0.03 | 0.03 | 99 | 1006.6 |
| 20260509042933 | 9 | 293 | 0.0 | 0.0 | 0.13 | 0.03 | 0.03 | 99 | 1006.7 |
| 20260509042431 | 9 | 294 | 0.0 | 0.0 | 0.13 | 0.03 | 0.03 | 99 | 1006.7 |
| 20260509041927 | 9 | 278 | 0.0 | 0.0 | 0.00 | 0.00 | 0.00 | 99 | 1006.9 |
| 20260509041424 | 9 | 277 | 0.0 | 0.0 | 0.00 | 0.00 | 0.00 | 99 | 1007.1 |
| 20260509040922 | 9 | 278 | 0.0 | 0.0 | 0.00 | 0.00 | 0.00 | 99 | 1006.8 |
| 20260509040420 | 9 | 278 | 0.0 | 0.0 | 0.18 | 0.00 | 0.00 | 99 | 1006.9 |
| 20260509035916 | 9 | 282 | 0.0 | 0.0 | 0.18 | 0.30 | 0.30 | 99 | 1007.0 |
| 20260509035413 | 9 | 3 | 1.6 | 1.6 | 0.00 | 0.28 | 0.28 | 99 | 1007.3 |
| 20260509034909 | 10 | 300 | 0.0 | 0.0 | 0.00 | 0.28 | 0.28 | 99 | 1007.4 |
| 20260509034408 | 9 | 304 | 0.0 | 0.0 | 0.13 | 0.28 | 0.28 | 99 | 1007.3 |
| 20260509033904 | 9 | 201 | 1.6 | 1.6 | 0.13 | 0.28 | 0.28 | 99 | 1007.4 |
| 20260509033401 | 9 | 177 | 3.2 | 3.2 | 0.00 | 0.25 | 0.25 | 99 | 1007.6 |
| 20260509032858 | 10 | 105 | 1.6 | 1.6 | 0.00 | 0.25 | 0.25 | 99 | 1007.6 |